Location: Góry Miechowskie
(50.3599°N, 20.1803°E)
Time: 08:35:33
(UTC+00:00)

A-11 Canister half - Pass Details

Date: 15 September 2024
Orbit: 1515 x 1684 km, 47.2° (Epoch: 09 October)

Event Time Altitude Azimuth Distance (km) Brightness Sun altitude
Rises 01:04:36 0° 286° (WNW) 4,663 - -27.8°
Reaches altitude 10° 01:09:00 10° 267° (W) 3,686 - -27.3°
Maximum altitude 01:14:17 17° 232° (SW) 3,188 - -26.7°
Drops below altitude 10° 01:19:38 10° 196° (SSW) 3,724 - -26.1°
Sets 01:24:10 0° 178° (S) 4,733 - -25.6°
